Home > Time Zones > World Clock > Weather > U.S.A. > Adak > Past weeks

Flag for U.S.A. Weather past 2 weeks in Adak, Alaska, U.S.A.

Now
32 °F

Mostly cloudy.


Feels Like: 20 °F
Forecast: 31 / 35 °F
Wind: 18 mph from North

Location: Adak

Current Time: Apr 18, 2015 at 3:01:30 AM

Latest Report: Apr 18, 2015 at 2:36 AM


Visibility: 10 mi

Pressure: 29.61 "Hg

Humidity: 64%

Dew point: 21 °F

Location of AdakLocation

Historic Weather in Adak — Graph

°F

Adak temperature yesterday

Maximum temperature yesterday: 37 °F (at 12:36 PM)
Minimum temperature yesterday: 30 °F (at 10:56 PM)
Average temperature yesterday: 35 °F

Past Weeks' High & Low Weather Summary

 TemperatureHumidityPressure
High46 °F (Apr 4, 2:16 PM)87% (Apr 3, 1:16 AM)30.27 "Hg (Apr 3, 1:16 AM)
Low25 °F (Apr 12, 8:56 AM)44% (Apr 11, 3:36 PM)29.13 "Hg (Apr 13, 5:36 AM)
Average36 °F70%29.80 "Hg
* Reported Apr 3 1:16 AM — Apr 18 1:56 AM, Adak, Weather by CustomWeather, © 2015

Note: Actual official high and low records may vary slightly from our data, if they occured in-between our weather recording intervals... More about our weather records

Advertising

Adak weather history for previous 24 hours

 ConditionsComfort  
Time TempWeatherWind HumidityBarometerVisibility
1:56 AM
Sat, Apr 18
32 °FMostly cloudy.18 mph64%29.60 "Hg10 mi
1:36 AM32 °FMostly cloudy.22 mph60%29.60 "Hg10 mi
1:16 AM32 °FOvercast.20 mph64%29.60 "Hg10 mi
12:56 AM32 °FOvercast.20 mph75%29.59 "Hg10 mi
12:36 AM32 °FPartly cloudy.22 mph64%29.59 "Hg10 mi
12:16 AM30 °FPartly cloudy.18 mph75%29.59 "Hg7 mi
11:56 PM
Fri, Apr 17
32 °FMostly cloudy.23 mph60%29.59 "Hg8 mi
11:36 PM32 °FMostly cloudy.18 mph64%29.58 "Hg10 mi
11:16 PM32 °FOvercast.21 mph64%29.58 "Hg8 mi
10:56 PM30 °FMostly cloudy.20 mph69%29.58 "Hg5 mi
10:36 PM32 °FOvercast.21 mph69%29.58 "Hg4 mi
10:16 PM32 °FOvercast.25 mph64%29.56 "Hg10 mi
9:56 PM32 °FMostly cloudy.20 mph64%29.56 "Hg4 mi
9:36 PM32 °FBroken clouds.23 mph69%29.55 "Hg5 mi
9:16 PM32 °FCloudy.23 mph69%29.54 "Hg6 mi
8:56 PM34 °FBroken clouds.22 mph65%29.54 "Hg10 mi
8:16 PM34 °FBroken clouds.23 mph70%29.53 "Hg8 mi
7:56 PM34 °FMore clouds than sun.16 mph70%29.53 "Hg5 mi
7:36 PM34 °FBroken clouds.24 mph70%29.52 "Hg10 mi
7:16 PM34 °FMore clouds than sun.20 mph70%29.52 "Hg9 mi
6:56 PM34 °FMostly cloudy.18 mph70%29.51 "Hg3 mi
6:16 PM34 °FBroken clouds.21 mph70%29.50 "Hg10 mi
5:56 PM34 °FBroken clouds.23 mph70%29.49 "Hg7 mi
5:36 PM34 °FBroken clouds.23 mph70%29.49 "Hg10 mi
5:16 PM34 °FCloudy.24 mph75%29.50 "Hg2 mi
4:56 PM34 °FMostly cloudy.26 mph75%29.49 "Hg8 mi
4:36 PM34 °FCloudy.26 mph70%29.49 "Hg1 mi
4:16 PM36 °FBroken clouds.21 mph70%29.48 "Hg7 mi
3:56 PM36 °FMostly cloudy.22 mph70%29.48 "Hg5 mi
3:36 PM36 °FPartly sunny.26 mph70%29.48 "Hg10 mi
3:16 PM37 °FMostly cloudy.29 mph65%29.47 "Hg7 mi
2:56 PM36 °FCloudy.25 mph75%29.47 "Hg10 mi
2:36 PM37 °FBroken clouds.28 mph70%29.47 "Hg10 mi
2:16 PM37 °FBroken clouds.25 mph70%29.46 "Hg10 mi
1:56 PM37 °FBroken clouds.30 mph65%29.46 "Hg10 mi
1:36 PM37 °FCloudy.28 mph65%29.45 "Hg10 mi
1:16 PM37 °FCloudy.25 mph60%29.45 "Hg10 mi
12:56 PM37 °FMostly cloudy.28 mph65%29.45 "Hg10 mi
12:36 PM37 °FBroken clouds.23 mph65%29.45 "Hg10 mi
12:16 PM36 °FBroken clouds.25 mph70%29.45 "Hg10 mi
11:56 AM36 °FCloudy.25 mph70%29.45 "Hg10 mi
11:36 AM36 °FBroken clouds.24 mph70%29.44 "Hg10 mi
11:16 AM34 °FCloudy.24 mph75%29.44 "Hg2 mi
10:56 AM36 °FPartly sunny.24 mph70%29.43 "Hg10 mi
10:36 AM36 °FBroken clouds.22 mph65%29.43 "Hg10 mi
10:16 AM36 °FBroken clouds.25 mph65%29.43 "Hg10 mi
9:56 AM36 °FMore clouds than sun.25 mph65%29.42 "Hg10 mi
9:36 AM36 °FBroken clouds.25 mph70%29.42 "Hg10 mi
9:16 AM34 °FBroken clouds.25 mph70%29.41 "Hg8 mi
8:56 AM36 °FBroken clouds.26 mph65%29.41 "Hg10 mi
8:36 AM34 °FBroken clouds.22 mph75%29.40 "Hg5 mi
8:16 AM36 °FBroken clouds.24 mph70%29.39 "Hg10 mi
7:56 AM36 °FBroken clouds.28 mph70%29.38 "Hg10 mi
7:36 AM34 °FOvercast.21 mph75%29.38 "Hg2 mi
7:16 AM36 °FPartly cloudy.28 mph70%29.38 "Hg10 mi
6:56 AM36 °FPassing clouds.23 mph70%29.38 "Hg10 mi
6:36 AM36 °FMostly cloudy.22 mph70%29.38 "Hg10 mi
6:16 AM36 °FOvercast.17 mph70%29.38 "Hg10 mi
5:56 AM36 °FMostly cloudy.22 mph70%29.38 "Hg10 mi
5:36 AM36 °FOvercast.16 mph75%29.38 "Hg10 mi
5:16 AM34 °FMostly cloudy.25 mph81%29.37 "Hg10 mi
4:56 AM36 °FMostly cloudy.10 mph75%29.37 "Hg10 mi
4:36 AM36 °FOvercast.13 mph75%29.38 "Hg10 mi
4:16 AM36 °FMostly cloudy.10 mph75%29.38 "Hg10 mi
3:56 AM34 °FOvercast.14 mph81%29.38 "Hg8 mi
3:36 AM36 °FPartly cloudy.12 mph75%29.39 "Hg9 mi
3:16 AM36 °FMostly cloudy.14 mph75%29.39 "Hg4 mi
Weather by CustomWeather, © 2015

See weather overviewHow to use our weather pages